This is the latest recevied weather packets stored in our database for station/object KI4FRU. If no packets are shown the sender has not sent any weather packets the latest 1 day(s).
| Time | Temp. | Humidity | Pressure | Rain* | Wind** | Luminosity | Snow |
|---|---|---|---|---|---|---|---|
| 1778085571 | 18.33° C | 99% | 1054 hPa | 3.05 mm | - | 99 W/m² | - |
| 1778084659 | 20° C | 99% | 1054.2 hPa | 0 mm | - | 99 W/m² | - |
| 1778084356 | 20° C | 97% | 1053.8 hPa | 0 mm | - | 90 W/m² | - |
| 1778084054 | 20° C | 95% | 1053.7 hPa | 0 mm | - | 84 W/m² | - |
| 1778083140 | 20.56° C | 94% | 1053.5 hPa | 0 mm | - | 83 W/m² | - |
| 1778081411 | 20.56° C | 87% | 1052.7 hPa | 0 mm | - | 66 W/m² | - |
| 1778078988 | 20° C | 89% | 1052 hPa | 0 mm | - | 94 W/m² | - |
| 1778078684 | 20° C | 88% | 1052.1 hPa | 0 mm | - | 79 W/m² | - |
| 1778078079 | 20° C | 87% | 1052.4 hPa | 0 mm | - | 53 W/m² | - |
| 1778077475 | 20° C | 88% | 1052.6 hPa | 0 mm | - | 24 W/m² | - |
| 1778077173 | 20° C | 89% | 1052.6 hPa | 0 mm | - | 98 W/m² | - |
| 1778076870 | 19.44° C | 90% | 1052.3 hPa | 0 mm | - | 165 W/m² | - |
| 1778075962 | 18.89° C | 90% | 1052.4 hPa | 0 mm | - | 36 W/m² | - |
| 1778075660 | 18.89° C | 90% | 1052.5 hPa | 0 mm | - | 36 W/m² | - |
| 1778075052 | 18.89° C | 91% | 1052.7 hPa | 0 mm | - | 44 W/m² | - |
| 1778073840 | 17.78° C | 92% | 1052.2 hPa | 0 mm | - | 49 W/m² | - |
| 1778072931 | 17.78° C | 93% | 1052.5 hPa | 0 mm | - | 36 W/m² | - |
| 1778072325 | 17.78° C | 94% | 1052.6 hPa | 0 mm | - | 27 W/m² | - |
| 1778072023 | 17.78° C | 93% | 1052.5 hPa | 0 mm | - | 29 W/m² | - |
| 1778071418 | 17.22° C | 94% | 1052.3 hPa | 0 mm | - | 48 W/m² | - |
| 1778069906 | 16.67° C | 94% | 1052.4 hPa | 0 mm | - | 39 W/m² | - |
| 1778067788 | 16.67° C | 96% | 1052.9 hPa | 0 mm | - | 15 W/m² | - |
| 1778066880 | 16.11° C | 96% | 1052.6 hPa | 0 mm | - | 18 W/m² | - |
| 1778065063 | 15.56° C | 97% | 1052.2 hPa | 0 mm | - | 6 W/m² | - |
| 1778064760 | 15.56° C | 97% | 1052.4 hPa | 0 mm | - | 6 W/m² | - |
* Rain latest hour (hover to see other rain measurements)
** Current wind speed in m/s (hover to see current wind gust speed)